Retour au catalogue

CZ-2D DEB

ActifSSO
NORAD 36291·DEBRIS·🇨🇳 China

Lancé Nov 5, 2008 depuis Jiuquan Satellite Launch Center

Loading…

Prochains Passages (prochaines 24 heures)

TLE

VieillissantSource: Space-Track

Époque: Sep 6, 2026, 06:44 UTC

1 36291U 08056G   26249.28093169  .00000536  00000-0  30484-3 0  9997
2 36291  98.4012 270.7731 0168153 207.9168 151.2904 14.06789968907748

Suivez CZ-2D DEB en temps réel avec AllMySat

Download on the App Store